Location: Berg
(48.4333°N, 13.9167°E)
Time: 05:36:31
(UTC+00:00)

Cosmos 2082 Rocket - Pass Details

Date: 18 September 2020
Orbit: 834 x 853 km, 71.0° (Epoch: 27 October)

Event Time Altitude Azimuth Distance (km) Brightness Sun altitude
Rises 20:39:51 0° 333° (NNW) 3,393 6.4 -31.8°
Reaches altitude 10° 20:42:19 10° 336° (NNW) 2,455 5.4 -32.1°
Enters shadow 20:46:23 46° 358° (N) 1,113 3.0 -32.5°
